Wetterdaten: Dienstag, 20.10.2015
Datum Zeit Auen-Temp. Temp gefhlt Luftfeuchte Luftdruck Regen Wind Richtung Richtung Taupunkt Windben
20.10.2015 00:00 -0,4 C -1,0 C 92 % 1018,6 hPa 0,0 mm 0,0 km/h (0 Bft) S 180 -1,5 C 0,0 km/h (0 Bft)
20.10.2015 00:05 -0,7 C -1,2 C 92 % 1018,6 hPa 0,0 mm 0,0 km/h (0 Bft) S 180 -1,8 C 0,0 km/h (0 Bft)
20.10.2015 00:10 -0,7 C -1,3 C 92 % 1018,5 hPa 0,0 mm 0,0 km/h (0 Bft) S 180 -1,8 C 0,0 km/h (0 Bft)
20.10.2015 00:15 -0,8 C -1,4 C 92 % 1018,5 hPa 0,0 mm 0,0 km/h (0 Bft) S 180 -1,9 C 0,0 km/h (0 Bft)
20.10.2015 00:20 -0,7 C -1,4 C 92 % 1018,5 hPa 0,0 mm 0,0 km/h (0 Bft) S-SW 202 -1,8 C 0,0 km/h (0 Bft)
20.10.2015 00:25 -0,9 C -1,5 C 92 % 1018,5 hPa 0,0 mm 0,0 km/h (0 Bft) S-SW 202 -2,0 C 0,0 km/h (0 Bft)
20.10.2015 00:30 -1,1 C -1,6 C 92 % 1018,4 hPa 0,0 mm 0,0 km/h (0 Bft) S-SW 202 -2,2 C 0,0 km/h (0 Bft)
20.10.2015 00:35 -1,0 C -1,6 C 92 % 1018,4 hPa 0,0 mm 0,0 km/h (0 Bft) S 180 -2,1 C 0,0 km/h (0 Bft)
20.10.2015 00:40 -0,9 C -1,5 C 92 % 1018,4 hPa 0,0 mm 0,0 km/h (0 Bft) S-SW 202 -2,0 C 0,0 km/h (0 Bft)
20.10.2015 00:45 -0,4 C -1,0 C 92 % 1018,4 hPa 0,0 mm 0,0 km/h (0 Bft) SW 225 -1,5 C 0,0 km/h (0 Bft)
20.10.2015 00:50 -0,4 C -1,0 C 92 % 1018,4 hPa 0,0 mm 0,0 km/h (0 Bft) SW 225 -1,5 C 0,0 km/h (0 Bft)
20.10.2015 00:55 -0,5 C -1,0 C 92 % 1018,4 hPa 0,0 mm 0,0 km/h (0 Bft) SW 225 -1,6 C 0,0 km/h (0 Bft)
20.10.2015 01:00 -0,6 C -1,1 C 92 % 1018,4 hPa 0,0 mm 0,0 km/h (0 Bft) SW 225 -1,7 C 0,0 km/h (0 Bft)
20.10.2015 01:05 -0,9 C -1,4 C 92 % 1018,4 hPa 0,0 mm 0,0 km/h (0 Bft) SW 225 -2,0 C 0,0 km/h (0 Bft)
20.10.2015 01:10 -0,8 C -1,3 C 92 % 1018,3 hPa 0,0 mm 0,0 km/h (0 Bft) SW 225 -1,9 C 0,0 km/h (0 Bft)
20.10.2015 01:15 -0,9 C -1,3 C 89 % 1018,3 hPa 0,0 mm 0,0 km/h (0 Bft) SW 225 -2,5 C 0,0 km/h (0 Bft)
20.10.2015 01:20 -0,8 C -1,2 C 89 % 1018,3 hPa 0,0 mm 0,0 km/h (0 Bft) S 180 -2,4 C 0,0 km/h (0 Bft)
20.10.2015 01:25 -0,8 C -1,2 C 89 % 1018,3 hPa 0,0 mm 0,0 km/h (0 Bft) S 180 -2,4 C 0,0 km/h (0 Bft)
20.10.2015 01:30 -0,8 C -1,2 C 89 % 1018,4 hPa 0,0 mm 0,0 km/h (0 Bft) S-SO 157 -2,4 C 0,0 km/h (0 Bft)
20.10.2015 01:35 -0,8 C -1,3 C 93 % 1018,4 hPa 0,0 mm 0,0 km/h (0 Bft) S-SO 157 -1,8 C 0,0 km/h (0 Bft)
20.10.2015 01:40 -1,0 C -1,5 C 93 % 1018,4 hPa 0,0 mm 0,0 km/h (0 Bft) W-SW 247 -2,0 C 0,0 km/h (0 Bft)
20.10.2015 01:45 -1,0 C -1,5 C 92 % 1018,4 hPa 0,0 mm 0,0 km/h (0 Bft) SW 225 -2,1 C 0,0 km/h (0 Bft)
20.10.2015 01:50 -1,1 C -1,6 C 92 % 1018,2 hPa 0,0 mm 0,0 km/h (0 Bft) SW 225 -2,2 C 0,0 km/h (0 Bft)
20.10.2015 01:55 -1,3 C -1,7 C 92 % 1018,2 hPa 0,0 mm 0,0 km/h (0 Bft) SW 225 -2,4 C 0,0 km/h (0 Bft)
20.10.2015 02:00 -1,1 C -1,6 C 92 % 1018,2 hPa 0,0 mm 0,0 km/h (0 Bft) SW 225 -2,2 C 0,0 km/h (0 Bft)
20.10.2015 02:04 -1,3 C -1,8 C 93 % 1018,2 hPa 0,0 mm 0,0 km/h (0 Bft) W-SW 247 -2,3 C 0,0 km/h (0 Bft)
20.10.2015 02:06 -1,3 C -1,8 C 93 % 1018,2 hPa 0,0 mm 0,0 km/h (0 Bft) W-SW 247 -2,3 C 0,0 km/h (0 Bft)
20.10.2015 02:10 -1,4 C -1,9 C 92 % 1018,2 hPa 0,0 mm 0,0 km/h (0 Bft) SW 225 -2,5 C 0,0 km/h (0 Bft)
20.10.2015 02:15 -1,5 C -2,0 C 92 % 1018,2 hPa 0,0 mm 0,0 km/h (0 Bft) S-SW 202 -2,6 C 0,0 km/h (0 Bft)
20.10.2015 02:20 -1,5 C -2,0 C 92 % 1018,2 hPa 0,0 mm 0,0 km/h (0 Bft) S-SW 202 -2,6 C 0,0 km/h (0 Bft)
20.10.2015 02:25 -1,7 C -2,2 C 92 % 1018,2 hPa 0,0 mm 0,0 km/h (0 Bft) W-SW 247 -2,8 C 0,0 km/h (0 Bft)
20.10.2015 02:30 -1,8 C -2,0 C 92 % 1018,3 hPa 0,0 mm 0,0 km/h (0 Bft) W-SW 247 -2,9 C 0,0 km/h (0 Bft)
20.10.2015 02:35 -1,7 C -1,9 C 92 % 1018,3 hPa 0,0 mm 0,0 km/h (0 Bft) W-SW 247 -2,8 C 0,0 km/h (0 Bft)
20.10.2015 02:40 -1,7 C -2,0 C 92 % 1018,3 hPa 0,0 mm 0,0 km/h (0 Bft) W-SW 247 -2,8 C 0,0 km/h (0 Bft)
20.10.2015 02:45 -1,8 C -2,2 C 92 % 1018,3 hPa 0,0 mm 0,0 km/h (0 Bft) W-SW 247 -2,9 C 0,0 km/h (0 Bft)
20.10.2015 02:50 -2,0 C -2,3 C 92 % 1018,3 hPa 0,0 mm 0,0 km/h (0 Bft) W-SW 247 -3,1 C 0,0 km/h (0 Bft)
20.10.2015 02:55 -2,1 C -2,5 C 92 % 1018,3 hPa 0,0 mm 0,0 km/h (0 Bft) W-SW 247 -3,2 C 0,0 km/h (0 Bft)
20.10.2015 03:00 -2,2 C -2,6 C 92 % 1018,3 hPa 0,0 mm 0,0 km/h (0 Bft) W-SW 247 -3,3 C 0,0 km/h (0 Bft)
20.10.2015 03:05 -2,1 C -2,4 C 92 % 1018,3 hPa 0,0 mm 0,0 km/h (0 Bft) W-SW 247 -3,2 C 0,0 km/h (0 Bft)
20.10.2015 03:10 -1,8 C -2,2 C 92 % 1018,2 hPa 0,0 mm 0,0 km/h (0 Bft) SW 225 -2,9 C 0,0 km/h (0 Bft)
20.10.2015 03:15 -1,6 C -2,0 C 92 % 1018,2 hPa 0,0 mm 0,0 km/h (0 Bft) S 180 -2,7 C 0,0 km/h (0 Bft)
20.10.2015 03:20 -1,8 C -2,2 C 92 % 1018,2 hPa 0,0 mm 0,0 km/h (0 Bft) S 180 -2,9 C 0,0 km/h (0 Bft)
20.10.2015 03:25 -1,7 C -2,1 C 89 % 1018,2 hPa 0,0 mm 0,0 km/h (0 Bft) S 180 -3,3 C 0,0 km/h (0 Bft)
20.10.2015 03:30 -1,7 C -2,0 C 89 % 1018,2 hPa 0,0 mm 0,0 km/h (0 Bft) S 180 -3,3 C 0,0 km/h (0 Bft)
20.10.2015 03:35 -1,5 C -1,8 C 89 % 1018,2 hPa 0,0 mm 0,0 km/h (0 Bft) S 180 -3,1 C 0,0 km/h (0 Bft)
20.10.2015 03:40 -1,5 C -1,9 C 93 % 1018,2 hPa 0,0 mm 0,0 km/h (0 Bft) S 180 -2,5 C 0,0 km/h (0 Bft)
20.10.2015 03:45 -1,6 C -1,9 C 93 % 1018,2 hPa 0,0 mm 0,0 km/h (0 Bft) SW 225 -2,6 C 0,0 km/h (0 Bft)
20.10.2015 03:50 -1,6 C -1,9 C 93 % 1018,3 hPa 0,0 mm 0,0 km/h (0 Bft) SW 225 -2,6 C 0,0 km/h (0 Bft)
20.10.2015 03:55 -1,5 C -1,8 C 89 % 1018,3 hPa 0,0 mm 0,0 km/h (0 Bft) S 180 -3,1 C 0,0 km/h (0 Bft)
20.10.2015 04:00 -1,6 C -1,9 C 93 % 1018,3 hPa 0,0 mm 0,0 km/h (0 Bft) S 180 -2,6 C 0,0 km/h (0 Bft)
20.10.2015 04:05 -1,7 C -2,0 C 93 % 1018,3 hPa 0,0 mm 0,0 km/h (0 Bft) S 180 -2,7 C 0,0 km/h (0 Bft)
20.10.2015 04:10 -1,7 C -2,1 C 93 % 1018,2 hPa 0,0 mm 0,0 km/h (0 Bft) S-SW 202 -2,7 C 0,0 km/h (0 Bft)
20.10.2015 04:15 -2,1 C -2,3 C 89 % 1018,2 hPa 0,0 mm 0,0 km/h (0 Bft) S-SO 157 -3,7 C 0,0 km/h (0 Bft)
20.10.2015 04:20 -1,8 C -2,1 C 89 % 1018,2 hPa 0,0 mm 0,0 km/h (0 Bft) S 180 -3,4 C 0,0 km/h (0 Bft)
20.10.2015 04:25 -2,2 C -2,5 C 93 % 1018,2 hPa 0,0 mm 0,0 km/h (0 Bft) W-SW 247 -3,2 C 0,0 km/h (0 Bft)
20.10.2015 04:30 -2,3 C -2,6 C 92 % 1018,2 hPa 0,0 mm 0,5 km/h (0 Bft) SW 225 -3,4 C 6,0 km/h (2 Bft)
20.10.2015 04:35 -1,5 C -1,9 C 93 % 1018,2 hPa 0,0 mm 2,6 km/h (1 Bft) SW 225 -2,5 C 0,0 km/h (0 Bft)
20.10.2015 04:40 -1,7 C -2,0 C 89 % 1018,2 hPa 0,0 mm 2,3 km/h (1 Bft) S 180 -3,3 C 0,0 km/h (0 Bft)
20.10.2015 04:45 -2,1 C -2,4 C 93 % 1018,2 hPa 0,0 mm 0,0 km/h (0 Bft) S-SW 202 -3,1 C 0,0 km/h (0 Bft)
20.10.2015 04:50 -2,2 C -2,6 C 93 % 1018,1 hPa 0,0 mm 0,0 km/h (0 Bft) S-SW 202 -3,2 C 0,0 km/h (0 Bft)
20.10.2015 04:55 -2,2 C -2,6 C 93 % 1018,1 hPa 0,0 mm 0,0 km/h (0 Bft) S-SW 202 -3,2 C 0,0 km/h (0 Bft)
20.10.2015 05:00 -2,3 C -2,7 C 93 % 1018,1 hPa 0,0 mm 0,0 km/h (0 Bft) S-SW 202 -3,3 C 0,0 km/h (0 Bft)
20.10.2015 05:05 -2,4 C -2,8 C 92 % 1018,1 hPa 0,0 mm 0,0 km/h (0 Bft) W-SW 247 -3,5 C 0,0 km/h (0 Bft)
20.10.2015 05:10 -2,3 C -2,7 C 92 % 1018,1 hPa 0,0 mm 0,0 km/h (0 Bft) W-SW 247 -3,4 C 0,0 km/h (0 Bft)
20.10.2015 05:15 -1,7 C -2,3 C 93 % 1018,1 hPa 0,0 mm 0,0 km/h (0 Bft) S 180 -2,7 C 0,0 km/h (0 Bft)
20.10.2015 05:20 -2,0 C -2,4 C 93 % 1018,1 hPa 0,0 mm 0,0 km/h (0 Bft) W-SW 247 -3,0 C 0,0 km/h (0 Bft)
20.10.2015 05:25 -2,2 C -2,6 C 93 % 1018,1 hPa 0,0 mm 0,0 km/h (0 Bft) W-SW 247 -3,2 C 0,0 km/h (0 Bft)
20.10.2015 05:30 -2,1 C -2,5 C 93 % 1017,9 hPa 0,0 mm 0,0 km/h (0 Bft) W-SW 247 -3,1 C 0,0 km/h (0 Bft)
20.10.2015 05:35 -2,4 C -2,8 C 93 % 1017,9 hPa 0,0 mm 0,0 km/h (0 Bft) W-SW 247 -3,4 C 0,0 km/h (0 Bft)
20.10.2015 05:40 -2,5 C -2,9 C 93 % 1017,9 hPa 0,0 mm 0,0 km/h (0 Bft) W-SW 247 -3,5 C 0,0 km/h (0 Bft)
20.10.2015 05:45 -2,5 C -3,0 C 92 % 1017,9 hPa 0,0 mm 0,0 km/h (0 Bft) W-SW 247 -3,6 C 0,0 km/h (0 Bft)
20.10.2015 05:50 -2,4 C -2,9 C 92 % 1018,4 hPa 0,0 mm 0,0 km/h (0 Bft) W-SW 247 -3,5 C 0,0 km/h (0 Bft)
20.10.2015 05:55 -2,4 C -2,9 C 92 % 1018,4 hPa 0,0 mm 0,0 km/h (0 Bft) W-SW 247 -3,5 C 0,0 km/h (0 Bft)
20.10.2015 06:00 -2,6 C -3,1 C 92 % 1018,4 hPa 0,0 mm 0,0 km/h (0 Bft) W-SW 247 -3,7 C 0,0 km/h (0 Bft)
20.10.2015 06:05 -2,4 C -2,9 C 92 % 1018,4 hPa 0,0 mm 0,0 km/h (0 Bft) W-SW 247 -3,5 C 0,0 km/h (0 Bft)
20.10.2015 06:10 -2,4 C -2,9 C 92 % 1018,6 hPa 0,0 mm 0,0 km/h (0 Bft) W-SW 247 -3,5 C 0,0 km/h (0 Bft)
20.10.2015 06:15 -2,6 C -3,0 C 92 % 1018,6 hPa 0,0 mm 0,0 km/h (0 Bft) W-SW 247 -3,7 C 0,0 km/h (0 Bft)
20.10.2015 06:20 -2,5 C -3,0 C 92 % 1018,6 hPa 0,0 mm 0,0 km/h (0 Bft) S-SW 202 -3,6 C 0,0 km/h (0 Bft)
20.10.2015 06:25 -2,5 C -3,0 C 93 % 1018,6 hPa 0,0 mm 0,0 km/h (0 Bft) SW 225 -3,5 C 0,0 km/h (0 Bft)
20.10.2015 06:30 -2,6 C -3,1 C 92 % 1018,5 hPa 0,0 mm 0,0 km/h (0 Bft) W-SW 247 -3,7 C 0,0 km/h (0 Bft)
20.10.2015 06:35 -2,6 C -3,1 C 92 % 1018,5 hPa 0,0 mm 0,0 km/h (0 Bft) W-SW 247 -3,7 C 0,0 km/h (0 Bft)
20.10.2015 06:40 -2,7 C -3,1 C 92 % 1018,5 hPa 0,0 mm 0,0 km/h (0 Bft) W-SW 247 -3,8 C 0,0 km/h (0 Bft)
20.10.2015 06:45 -2,6 C -3,1 C 92 % 1018,5 hPa 0,0 mm 0,0 km/h (0 Bft) W-SW 247 -3,7 C 0,0 km/h (0 Bft)
20.10.2015 06:50 -2,7 C -3,1 C 92 % 1018,4 hPa 0,0 mm 0,0 km/h (0 Bft) W-SW 247 -3,8 C 0,0 km/h (0 Bft)
20.10.2015 06:55 -2,5 C -3,0 C 92 % 1018,4 hPa 0,0 mm 0,0 km/h (0 Bft) W-SW 247 -3,6 C 0,0 km/h (0 Bft)
20.10.2015 07:00 -2,4 C -2,9 C 92 % 1018,4 hPa 0,0 mm 0,0 km/h (0 Bft) S 180 -3,5 C 0,0 km/h (0 Bft)
20.10.2015 07:05 -2,8 C -3,1 C 92 % 1018,4 hPa 0,0 mm 0,0 km/h (0 Bft) S 180 -3,9 C 0,0 km/h (0 Bft)
20.10.2015 07:10 -2,7 C -3,1 C 92 % 1018,4 hPa 0,0 mm 0,0 km/h (0 Bft) S 180 -3,8 C 0,0 km/h (0 Bft)
20.10.2015 07:15 -2,3 C -2,8 C 93 % 1018,4 hPa 0,0 mm 0,0 km/h (0 Bft) S 180 -3,3 C 0,0 km/h (0 Bft)
20.10.2015 07:20 -2,7 C -3,1 C 92 % 1018,4 hPa 0,0 mm 0,0 km/h (0 Bft) S 180 -3,8 C 0,0 km/h (0 Bft)
20.10.2015 07:25 -2,7 C -3,1 C 92 % 1018,4 hPa 0,0 mm 0,0 km/h (0 Bft) S 180 -3,8 C 0,0 km/h (0 Bft)
20.10.2015 07:30 -2,7 C -3,1 C 92 % 1018,4 hPa 0,0 mm 0,0 km/h (0 Bft) S 180 -3,8 C 0,0 km/h (0 Bft)
20.10.2015 07:35 -2,6 C -3,1 C 92 % 1018,4 hPa 0,0 mm 0,0 km/h (0 Bft) S 180 -3,7 C 0,0 km/h (0 Bft)
20.10.2015 07:40 -2,7 C -3,2 C 92 % 1018,4 hPa 0,0 mm 0,0 km/h (0 Bft) S 180 -3,8 C 0,0 km/h (0 Bft)
20.10.2015 07:45 -2,6 C -3,1 C 92 % 1018,4 hPa 0,0 mm 0,0 km/h (0 Bft) S 180 -3,7 C 0,0 km/h (0 Bft)
20.10.2015 07:50 -2,9 C -3,3 C 92 % 1018,2 hPa 0,0 mm 0,0 km/h (0 Bft) S 180 -4,0 C 0,0 km/h (0 Bft)
20.10.2015 07:55 -2,9 C -3,3 C 92 % 1018,2 hPa 0,0 mm 0,0 km/h (0 Bft) S 180 -4,0 C 0,0 km/h (0 Bft)
20.10.2015 08:00 -2,5 C -3,0 C 92 % 1018,2 hPa 0,0 mm 0,0 km/h (0 Bft) S 180 -3,6 C 0,0 km/h (0 Bft)
20.10.2015 08:05 -2,3 C -2,8 C 93 % 1018,2 hPa 0,0 mm 0,0 km/h (0 Bft) S-SW 202 -3,3 C 0,0 km/h (0 Bft)
20.10.2015 08:08 -2,3 C -2,8 C 93 % 1018,2 hPa 0,0 mm 0,0 km/h (0 Bft) S-SW 202 -3,3 C 0,0 km/h (0 Bft)
20.10.2015 08:10 -2,5 C -2,9 C 93 % 1018,3 hPa 0,0 mm 0,0 km/h (0 Bft) S-SW 202 -3,5 C 0,0 km/h (0 Bft)
20.10.2015 08:15 -2,3 C -2,8 C 93 % 1018,3 hPa 0,0 mm 0,0 km/h (0 Bft) S-SW 202 -3,3 C 0,0 km/h (0 Bft)
20.10.2015 08:20 -2,6 C -2,9 C 93 % 1018,3 hPa 0,0 mm 0,0 km/h (0 Bft) S 180 -3,6 C 0,0 km/h (0 Bft)
20.10.2015 08:25 -2,3 C -2,7 C 93 % 1018,3 hPa 0,0 mm 0,0 km/h (0 Bft) S-SO 157 -3,3 C 0,0 km/h (0 Bft)
20.10.2015 08:30 -2,2 C -2,4 C 89 % 1018,7 hPa 0,0 mm 0,0 km/h (0 Bft) S 180 -3,8 C 0,0 km/h (0 Bft)
20.10.2015 08:35 -2,0 C -2,3 C 93 % 1018,7 hPa 0,0 mm 0,0 km/h (0 Bft) SW 225 -3,0 C 0,0 km/h (0 Bft)
20.10.2015 08:40 -1,8 C -2,1 C 89 % 1018,7 hPa 0,0 mm 0,0 km/h (0 Bft) S 180 -3,4 C 0,0 km/h (0 Bft)
20.10.2015 08:45 -1,7 C -2,1 C 93 % 1018,7 hPa 0,0 mm 0,0 km/h (0 Bft) SW 225 -2,7 C 0,0 km/h (0 Bft)
20.10.2015 08:50 -1,6 C -2,0 C 93 % 1018,7 hPa 0,0 mm 0,0 km/h (0 Bft) SW 225 -2,6 C 0,0 km/h (0 Bft)
20.10.2015 08:55 -1,8 C -2,1 C 93 % 1018,7 hPa 0,0 mm 0,0 km/h (0 Bft) SW 225 -2,8 C 0,0 km/h (0 Bft)
20.10.2015 09:00 -1,8 C -2,2 C 93 % 1018,7 hPa 0,0 mm 0,0 km/h (0 Bft) SW 225 -2,8 C 0,0 km/h (0 Bft)
20.10.2015 09:05 -1,5 C -1,9 C 93 % 1018,7 hPa 0,0 mm 0,0 km/h (0 Bft) SW 225 -2,5 C 0,0 km/h (0 Bft)
20.10.2015 09:10 -1,5 C -1,8 C 93 % 1018,8 hPa 0,0 mm 0,0 km/h (0 Bft) SW 225 -2,5 C 0,0 km/h (0 Bft)
20.10.2015 09:15 -1,4 C -1,6 C 89 % 1018,8 hPa 0,0 mm 0,0 km/h (0 Bft) W-SW 247 -3,0 C 0,0 km/h (0 Bft)
20.10.2015 09:20 -1,3 C -1,4 C 89 % 1018,8 hPa 0,0 mm 0,0 km/h (0 Bft) W-SW 247 -2,9 C 0,0 km/h (0 Bft)
20.10.2015 09:25 -1,0 C -1,1 C 89 % 1018,8 hPa 0,0 mm 0,0 km/h (0 Bft) W-SW 247 -2,6 C 0,0 km/h (0 Bft)
20.10.2015 09:30 -0,8 C -0,9 C 89 % 1018,6 hPa 0,0 mm 0,0 km/h (0 Bft) S 180 -2,4 C 0,0 km/h (0 Bft)
20.10.2015 09:35 -0,5 C -0,7 C 90 % 1018,6 hPa 0,0 mm 0,0 km/h (0 Bft) S-SW 202 -1,9 C 0,0 km/h (0 Bft)
20.10.2015 09:40 -0,4 C -0,6 C 89 % 1018,6 hPa 0,0 mm 0,0 km/h (0 Bft) S-SW 202 -2,0 C 0,0 km/h (0 Bft)
20.10.2015 09:45 -0,2 C -0,5 C 94 % 1018,6 hPa 0,0 mm 0,3 km/h (0 Bft) W-SW 247 -1,0 C 5,2 km/h (1 Bft)
20.10.2015 09:50 -0,3 C -0,4 C 90 % 1018,9 hPa 0,0 mm 0,3 km/h (0 Bft) SW 225 -1,7 C 0,0 km/h (0 Bft)
20.10.2015 09:55 -0,2 C -0,3 C 90 % 1018,9 hPa 0,0 mm 0,3 km/h (0 Bft) SW 225 -1,6 C 0,0 km/h (0 Bft)
20.10.2015 10:00 0,0 C -0,2 C 94 % 1018,9 hPa 0,0 mm 1,0 km/h (0 Bft) SW 225 -0,8 C 0,0 km/h (0 Bft)
20.10.2015 10:05 0,1 C 0,1 C 90 % 1018,9 hPa 0,0 mm 1,3 km/h (1 Bft) W 270 -1,3 C 0,0 km/h (0 Bft)
20.10.2015 10:10 0,1 C 0,1 C 90 % 1019,0 hPa 0,0 mm 0,5 km/h (0 Bft) S 180 -1,3 C 0,0 km/h (0 Bft)
20.10.2015 10:15 0,1 C 0,2 C 90 % 1019,0 hPa 0,0 mm 0,0 km/h (0 Bft) S 180 -1,3 C 0,0 km/h (0 Bft)
20.10.2015 10:20 0,3 C 0,4 C 90 % 1019,0 hPa 0,0 mm 0,5 km/h (0 Bft) W-SW 247 -1,1 C 5,2 km/h (1 Bft)
20.10.2015 10:25 0,8 C 1,0 C 95 % 1019,0 hPa 0,0 mm 1,8 km/h (1 Bft) W 270 0,1 C 0,0 km/h (0 Bft)
20.10.2015 10:30 1,1 C 2,0 C 90 % 1019,2 hPa 0,0 mm 1,6 km/h (1 Bft) S 180 -0,4 C 0,0 km/h (0 Bft)
20.10.2015 10:35 1,4 C 2,5 C 95 % 1019,2 hPa 0,0 mm 0,0 km/h (0 Bft) S 180 0,7 C 0,0 km/h (0 Bft)
20.10.2015 10:40 1,4 C 4,5 C 95 % 1019,2 hPa 0,0 mm 0,0 km/h (0 Bft) NW 315 0,7 C 0,0 km/h (0 Bft)
20.10.2015 10:45 1,4 C 7,3 C 90 % 1019,2 hPa 0,0 mm 0,0 km/h (0 Bft) SW 225 -0,1 C 0,0 km/h (0 Bft)
20.10.2015 10:50 1,9 C 8,6 C 95 % 1019,4 hPa 0,0 mm 0,0 km/h (0 Bft) S 180 1,2 C 0,0 km/h (0 Bft)
20.10.2015 10:55 2,2 C 9,8 C 95 % 1019,4 hPa 0,0 mm 0,0 km/h (0 Bft) S 180 1,5 C 0,0 km/h (0 Bft)
20.10.2015 11:00 2,2 C 10,0 C 90 % 1019,4 hPa 0,0 mm 0,3 km/h (0 Bft) SW 225 0,7 C 0,0 km/h (0 Bft)
20.10.2015 11:05 2,4 C 10,8 C 90 % 1019,4 hPa 0,0 mm 1,0 km/h (0 Bft) W-SW 247 0,9 C 4,4 km/h (1 Bft)
20.10.2015 11:10 2,6 C 11,2 C 90 % 1019,6 hPa 0,0 mm 1,3 km/h (1 Bft) NW 315 1,1 C 3,9 km/h (1 Bft)
20.10.2015 11:15 2,5 C 12,1 C 95 % 1019,6 hPa 0,0 mm 1,3 km/h (1 Bft) S 180 1,8 C 2,8 km/h (1 Bft)
20.10.2015 11:20 2,6 C 12,8 C 95 % 1019,6 hPa 0,0 mm 0,5 km/h (0 Bft) SO 135 1,9 C 0,0 km/h (0 Bft)
20.10.2015 11:25 2,9 C 13,5 C 95 % 1019,6 hPa 0,0 mm 1,6 km/h (1 Bft) NW 315 2,2 C 4,9 km/h (1 Bft)
20.10.2015 11:30 2,9 C 13,7 C 95 % 1019,8 hPa 0,0 mm 1,6 km/h (1 Bft) SO 135 2,2 C 0,0 km/h (0 Bft)
20.10.2015 11:35 3,1 C 14,2 C 94 % 1019,8 hPa 0,0 mm 1,6 km/h (1 Bft) O-NO 67 2,2 C 5,4 km/h (1 Bft)
20.10.2015 11:40 3,3 C 13,9 C 94 % 1019,8 hPa 0,0 mm 2,3 km/h (1 Bft) N-NO 22 2,4 C 8,0 km/h (2 Bft)
20.10.2015 11:45 4,0 C 13,4 C 94 % 1019,8 hPa 0,0 mm 4,9 km/h (1 Bft) NO 45 3,1 C 9,8 km/h (2 Bft)
20.10.2015 11:50 4,6 C 12,4 C 94 % 1020,2 hPa 0,0 mm 4,7 km/h (1 Bft) W-NW 292 3,7 C 10,9 km/h (2 Bft)
20.10.2015 11:55 5,3 C 11,5 C 94 % 1020,2 hPa 0,0 mm 4,9 km/h (1 Bft) N-NO 22 4,4 C 9,3 km/h (2 Bft)
20.10.2015 12:00 5,1 C 10,8 C 93 % 1020,2 hPa 0,0 mm 4,7 km/h (1 Bft) O-NO 67 4,1 C 13,2 km/h (3 Bft)
20.10.2015 12:05 5,7 C 9,1 C 88 % 1020,2 hPa 0,0 mm 4,4 km/h (1 Bft) N-NO 22 3,9 C 4,9 km/h (1 Bft)
20.10.2015 12:10 5,8 C 8,8 C 88 % 1020,4 hPa 0,0 mm 4,1 km/h (1 Bft) N-NW 337 4,0 C 4,7 km/h (1 Bft)
20.10.2015 12:15 6,7 C 8,9 C 87 % 1020,4 hPa 0,0 mm 4,7 km/h (1 Bft) NW 315 4,7 C 8,8 km/h (2 Bft)
20.10.2015 12:20 7,2 C 9,3 C 87 % 1020,4 hPa 0,0 mm 3,1 km/h (1 Bft) N-NO 22 5,2 C 0,0 km/h (0 Bft)
20.10.2015 12:25 7,8 C 10,6 C 86 % 1020,4 hPa 0,0 mm 1,0 km/h (0 Bft) NW 315 5,6 C 0,0 km/h (0 Bft)
20.10.2015 12:30 8,1 C 11,8 C 85 % 1020,4 hPa 0,0 mm 1,0 km/h (0 Bft) NW 315 5,7 C 5,7 km/h (1 Bft)
20.10.2015 12:35 8,0 C 12,6 C 83 % 1020,4 hPa 0,0 mm 3,9 km/h (1 Bft) O-NO 67 5,3 C 4,7 km/h (1 Bft)
20.10.2015 12:40 7,8 C 11,9 C 82 % 1020,4 hPa 0,0 mm 6,0 km/h (2 Bft) O-NO 67 4,9 C 5,2 km/h (1 Bft)
20.10.2015 12:45 7,6 C 12,1 C 80 % 1020,4 hPa 0,0 mm 6,2 km/h (2 Bft) N-NO 22 4,4 C 7,3 km/h (2 Bft)
20.10.2015 12:50 6,9 C 10,4 C 80 % 1020,7 hPa 0,0 mm 6,0 km/h (2 Bft) NW 315 3,7 C 14,2 km/h (3 Bft)
20.10.2015 12:55 6,9 C 9,1 C 80 % 1020,7 hPa 0,0 mm 4,7 km/h (1 Bft) NW 315 3,7 C 0,0 km/h (0 Bft)
20.10.2015 13:00 7,4 C 11,0 C 79 % 1020,7 hPa 0,0 mm 2,3 km/h (1 Bft) NW 315 4,0 C 0,0 km/h (0 Bft)
20.10.2015 13:05 7,6 C 12,6 C 79 % 1020,7 hPa 0,0 mm 0,5 km/h (0 Bft) NW 315 4,2 C 0,0 km/h (0 Bft)
20.10.2015 13:10 7,4 C 11,7 C 78 % 1020,6 hPa 0,0 mm 2,3 km/h (1 Bft) N-NO 22 3,8 C 11,9 km/h (2 Bft)
20.10.2015 13:15 6,9 C 9,6 C 78 % 1020,6 hPa 0,0 mm 5,4 km/h (1 Bft) N-NW 337 3,3 C 10,4 km/h (2 Bft)
20.10.2015 13:20 6,5 C 8,3 C 78 % 1020,6 hPa 0,0 mm 5,7 km/h (1 Bft) N-NW 337 2,9 C 15,0 km/h (3 Bft)
20.10.2015 13:25 6,0 C 7,1 C 78 % 1020,6 hPa 0,0 mm 2,8 km/h (1 Bft) NO 45 2,5 C 0,0 km/h (0 Bft)
20.10.2015 13:30 5,9 C 6,8 C 78 % 1020,5 hPa 0,0 mm 1,3 km/h (1 Bft) NO 45 2,4 C 0,0 km/h (0 Bft)
20.10.2015 13:35 5,6 C 6,5 C 78 % 1020,5 hPa 0,0 mm 0,0 km/h (0 Bft) NO 45 2,1 C 0,0 km/h (0 Bft)
20.10.2015 13:40 5,5 C 6,3 C 78 % 1020,5 hPa 0,0 mm 0,0 km/h (0 Bft) NO 45 2,0 C 0,0 km/h (0 Bft)
20.10.2015 13:45 5,7 C 7,2 C 78 % 1020,5 hPa 0,0 mm 0,0 km/h (0 Bft) NO 45 2,2 C 0,0 km/h (0 Bft)
20.10.2015 13:50 6,7 C 9,9 C 77 % 1020,4 hPa 0,0 mm 0,0 km/h (0 Bft) NW 315 3,0 C 0,0 km/h (0 Bft)
20.10.2015 13:55 7,4 C 12,9 C 77 % 1020,4 hPa 0,0 mm 2,3 km/h (1 Bft) S 180 3,6 C 3,6 km/h (1 Bft)
20.10.2015 14:00 7,9 C 14,0 C 76 % 1020,4 hPa 0,0 mm 3,6 km/h (1 Bft) W-SW 247 3,9 C 4,1 km/h (1 Bft)
20.10.2015 14:05 7,8 C 14,8 C 74 % 1020,4 hPa 0,0 mm 4,7 km/h (1 Bft) W 270 3,5 C 4,7 km/h (1 Bft)
20.10.2015 14:09 7,8 C 14,8 C 74 % 1020,4 hPa 0,0 mm 4,7 km/h (1 Bft) W 270 3,5 C 4,7 km/h (1 Bft)
20.10.2015 14:10 8,2 C 15,4 C 73 % 1020,6 hPa 0,0 mm 4,1 km/h (1 Bft) SW 225 3,7 C 8,8 km/h (2 Bft)
20.10.2015 14:15 8,7 C 16,0 C 71 % 1020,6 hPa 0,0 mm 2,1 km/h (1 Bft) NW 315 3,7 C 3,1 km/h (1 Bft)
20.10.2015 14:20 8,6 C 16,2 C 70 % 1020,6 hPa 0,0 mm 2,6 km/h (1 Bft) NO 45 3,4 C 5,7 km/h (1 Bft)
20.10.2015 14:25 9,3 C 16,5 C 71 % 1020,6 hPa 0,0 mm 3,1 km/h (1 Bft) NW 315 4,3 C 0,0 km/h (0 Bft)
20.10.2015 14:30 9,8 C 17,5 C 69 % 1021,3 hPa 0,0 mm 2,3 km/h (1 Bft) W-SW 247 4,4 C 0,0 km/h (0 Bft)
20.10.2015 14:35 9,8 C 18,2 C 68 % 1021,3 hPa 0,0 mm 2,3 km/h (1 Bft) N-NO 22 4,2 C 3,1 km/h (1 Bft)
20.10.2015 14:40 9,4 C 17,1 C 66 % 1021,3 hPa 0,0 mm 4,7 km/h (1 Bft) NO 45 3,4 C 11,9 km/h (2 Bft)
20.10.2015 14:45 8,2 C 13,2 C 66 % 1021,3 hPa 0,0 mm 6,0 km/h (2 Bft) NO 45 2,2 C 5,7 km/h (1 Bft)
20.10.2015 14:50 7,7 C 11,4 C 66 % 1021,4 hPa 0,0 mm 5,2 km/h (1 Bft) N 360 1,8 C 5,4 km/h (1 Bft)
20.10.2015 14:55 7,4 C 9,7 C 67 % 1021,4 hPa 0,0 mm 3,4 km/h (1 Bft) NW 315 1,7 C 3,1 km/h (1 Bft)
20.10.2015 15:00 7,3 C 9,2 C 68 % 1021,4 hPa 0,0 mm 2,3 km/h (1 Bft) N-NO 22 1,8 C 0,0 km/h (0 Bft)
20.10.2015 15:05 7,2 C 8,8 C 69 % 1021,4 hPa 0,0 mm 0,3 km/h (0 Bft) NO 45 1,9 C 0,0 km/h (0 Bft)
20.10.2015 15:10 7,2 C 8,7 C 68 % 1020,8 hPa 0,0 mm 0,5 km/h (0 Bft) NO 45 1,7 C 0,0 km/h (0 Bft)
20.10.2015 15:15 7,1 C 8,6 C 68 % 1020,8 hPa 0,0 mm 1,3 km/h (1 Bft) O-SO 112 1,6 C 0,0 km/h (0 Bft)
20.10.2015 15:20 7,0 C 8,3 C 68 % 1020,8 hPa 0,0 mm 1,0 km/h (0 Bft) O-SO 112 1,5 C 0,0 km/h (0 Bft)
20.10.2015 15:25 6,8 C 8,0 C 69 % 1020,8 hPa 0,0 mm 0,0 km/h (0 Bft) S-SO 157 1,5 C 0,0 km/h (0 Bft)
20.10.2015 15:30 6,8 C 7,7 C 69 % 1020,5 hPa 0,0 mm 0,0 km/h (0 Bft) S-SO 157 1,5 C 0,0 km/h (0 Bft)
20.10.2015 15:35 6,6 C 7,4 C 70 % 1020,5 hPa 0,0 mm 0,0 km/h (0 Bft) O-NO 67 1,5 C 0,0 km/h (0 Bft)
20.10.2015 15:40 6,5 C 7,1 C 70 % 1020,5 hPa 0,0 mm 0,0 km/h (0 Bft) SO 135 1,4 C 0,0 km/h (0 Bft)
20.10.2015 15:45 6,3 C 7,0 C 70 % 1020,5 hPa 0,0 mm 0,0 km/h (0 Bft) SO 135 1,2 C 0,0 km/h (0 Bft)
20.10.2015 15:50 6,2 C 6,9 C 71 % 1020,1 hPa 0,0 mm 0,0 km/h (0 Bft) SO 135 1,3 C 0,0 km/h (0 Bft)
20.10.2015 15:55 6,2 C 7,0 C 71 % 1020,1 hPa 0,0 mm 0,0 km/h (0 Bft) SO 135 1,3 C 0,0 km/h (0 Bft)
20.10.2015 16:00 6,3 C 7,0 C 72 % 1020,1 hPa 0,0 mm 0,0 km/h (0 Bft) O 90 1,6 C 0,0 km/h (0 Bft)
20.10.2015 16:05 6,3 C 7,0 C 73 % 1020,1 hPa 0,0 mm 1,3 km/h (1 Bft) N-NW 337 1,8 C 8,3 km/h (2 Bft)
20.10.2015 16:10 6,4 C 7,0 C 73 % 1020,0 hPa 0,0 mm 2,8 km/h (1 Bft) NO 45 1,9 C 4,4 km/h (1 Bft)
20.10.2015 16:15 6,5 C 7,1 C 73 % 1020,0 hPa 0,0 mm 2,3 km/h (1 Bft) O-NO 67 2,0 C 0,0 km/h (0 Bft)
20.10.2015 16:20 6,6 C 7,4 C 73 % 1020,0 hPa 0,0 mm 1,0 km/h (0 Bft) O-SO 112 2,1 C 2,8 km/h (1 Bft)
20.10.2015 16:25 6,6 C 7,5 C 73 % 1020,0 hPa 0,7 mm 1,0 km/h (0 Bft) NO 45 2,1 C 0,0 km/h (0 Bft)
20.10.2015 16:30 6,6 C 7,5 C 73 % 1019,9 hPa 0,0 mm 1,6 km/h (1 Bft) NO 45 2,1 C 0,0 km/h (0 Bft)
20.10.2015 16:35 6,8 C 7,7 C 73 % 1019,9 hPa 0,0 mm 0,5 km/h (0 Bft) O-NO 67 2,3 C 3,1 km/h (1 Bft)
20.10.2015 16:40 6,8 C 7,8 C 72 % 1019,9 hPa 0,0 mm 0,5 km/h (0 Bft) O-NO 67 2,1 C 0,0 km/h (0 Bft)
20.10.2015 16:45 6,8 C 8,0 C 72 % 1019,9 hPa 0,0 mm 0,5 km/h (0 Bft) O-NO 67 2,1 C 0,0 km/h (0 Bft)
20.10.2015 16:50 6,7 C 8,0 C 72 % 1019,8 hPa 0,0 mm 0,0 km/h (0 Bft) O-NO 67 2,0 C 0,0 km/h (0 Bft)
20.10.2015 16:55 6,7 C 7,9 C 72 % 1019,8 hPa 0,0 mm 0,0 km/h (0 Bft) O-SO 112 2,0 C 0,0 km/h (0 Bft)
20.10.2015 17:00 6,7 C 7,8 C 73 % 1019,8 hPa 0,0 mm 0,0 km/h (0 Bft) O 90 2,2 C 0,0 km/h (0 Bft)
20.10.2015 17:05 6,7 C 7,7 C 73 % 1019,8 hPa 0,0 mm 0,0 km/h (0 Bft) O 90 2,2 C 0,0 km/h (0 Bft)
20.10.2015 17:10 6,7 C 7,6 C 73 % 1020,0 hPa 0,0 mm 0,0 km/h (0 Bft) O 90 2,2 C 0,0 km/h (0 Bft)
20.10.2015 17:15 6,6 C 7,4 C 73 % 1020,0 hPa 0,0 mm 0,0 km/h (0 Bft) O 90 2,1 C 0,0 km/h (0 Bft)
20.10.2015 17:20 6,6 C 7,4 C 73 % 1020,0 hPa 0,0 mm 0,0 km/h (0 Bft) O-SO 112 2,1 C 0,0 km/h (0 Bft)
20.10.2015 17:25 6,3 C 7,1 C 73 % 1020,0 hPa 0,0 mm 0,0 km/h (0 Bft) O-SO 112 1,8 C 0,0 km/h (0 Bft)
20.10.2015 17:30 6,0 C 6,7 C 73 % 1019,7 hPa 0,0 mm 0,0 km/h (0 Bft) O-SO 112 1,5 C 0,0 km/h (0 Bft)
20.10.2015 17:35 5,6 C 6,0 C 74 % 1019,7 hPa 0,0 mm 0,0 km/h (0 Bft) O-SO 112 1,3 C 0,0 km/h (0 Bft)
20.10.2015 17:40 5,5 C 5,7 C 75 % 1019,7 hPa 0,0 mm 0,0 km/h (0 Bft) O-SO 112 1,4 C 0,0 km/h (0 Bft)
20.10.2015 17:45 5,2 C 5,3 C 76 % 1019,7 hPa 0,0 mm 0,0 km/h (0 Bft) O-SO 112 1,3 C 0,0 km/h (0 Bft)
20.10.2015 17:50 5,0 C 5,0 C 77 % 1019,8 hPa 0,0 mm 0,0 km/h (0 Bft) O-SO 112 1,3 C 0,0 km/h (0 Bft)
20.10.2015 17:55 4,7 C 4,6 C 78 % 1019,8 hPa 0,0 mm 0,0 km/h (0 Bft) O-SO 112 1,2 C 0,0 km/h (0 Bft)
20.10.2015 18:00 4,6 C 4,4 C 78 % 1019,8 hPa 0,0 mm 0,0 km/h (0 Bft) O-SO 112 1,1 C 0,0 km/h (0 Bft)
20.10.2015 18:05 4,5 C 4,2 C 79 % 1019,8 hPa 0,0 mm 0,0 km/h (0 Bft) O-SO 112 1,2 C 0,0 km/h (0 Bft)
20.10.2015 18:10 4,4 C 4,1 C 79 % 1020,1 hPa 0,0 mm 0,0 km/h (0 Bft) O-SO 112 1,1 C 0,0 km/h (0 Bft)
20.10.2015 18:15 4,3 C 4,1 C 79 % 1020,1 hPa 0,0 mm 1,8 km/h (1 Bft) S 180 1,0 C 4,4 km/h (1 Bft)
20.10.2015 18:20 4,2 C 4,1 C 80 % 1020,1 hPa 0,0 mm 2,8 km/h (1 Bft) S-SO 157 1,1 C 0,0 km/h (0 Bft)
20.10.2015 18:25 4,1 C 4,0 C 81 % 1020,1 hPa 0,0 mm 1,6 km/h (1 Bft) SO 135 1,1 C 0,0 km/h (0 Bft)
20.10.2015 18:30 4,0 C 3,9 C 81 % 1020,2 hPa 0,0 mm 0,3 km/h (0 Bft) S 180 1,0 C 2,8 km/h (1 Bft)
20.10.2015 18:35 4,1 C 4,0 C 81 % 1020,2 hPa 0,0 mm 1,0 km/h (0 Bft) S-SO 157 1,1 C 3,4 km/h (1 Bft)
20.10.2015 18:40 4,1 C 4,1 C 82 % 1020,2 hPa 0,0 mm 1,8 km/h (1 Bft) S 180 1,3 C 3,1 km/h (1 Bft)
20.10.2015 18:45 4,0 C 4,1 C 82 % 1020,2 hPa 0,0 mm 2,8 km/h (1 Bft) S 180 1,2 C 3,6 km/h (1 Bft)
20.10.2015 18:50 4,1 C 4,1 C 82 % 1020,4 hPa 0,0 mm 2,8 km/h (1 Bft) S-SO 157 1,3 C 0,0 km/h (0 Bft)
20.10.2015 18:55 4,0 C 4,0 C 83 % 1020,4 hPa 0,0 mm 1,3 km/h (1 Bft) S-SO 157 1,4 C 0,0 km/h (0 Bft)
20.10.2015 19:00 3,9 C 3,9 C 84 % 1020,4 hPa 0,0 mm 0,3 km/h (0 Bft) S 180 1,4 C 0,0 km/h (0 Bft)
20.10.2015 19:05 3,9 C 3,8 C 84 % 1020,4 hPa 0,0 mm 0,0 km/h (0 Bft) S 180 1,4 C 0,0 km/h (0 Bft)
20.10.2015 19:10 3,8 C 3,8 C 83 % 1020,5 hPa 0,0 mm 0,0 km/h (0 Bft) S-SO 157 1,2 C 0,0 km/h (0 Bft)
20.10.2015 19:15 3,8 C 3,8 C 83 % 1020,5 hPa 0,0 mm 0,0 km/h (0 Bft) S 180 1,2 C 0,0 km/h (0 Bft)
20.10.2015 19:20 3,8 C 3,7 C 85 % 1020,5 hPa 0,0 mm 0,3 km/h (0 Bft) W-SW 247 1,5 C 5,2 km/h (1 Bft)
20.10.2015 19:25 3,8 C 3,7 C 85 % 1020,5 hPa 0,0 mm 0,5 km/h (0 Bft) S 180 1,5 C 0,0 km/h (0 Bft)
20.10.2015 19:30 3,8 C 3,7 C 84 % 1020,6 hPa 0,0 mm 0,5 km/h (0 Bft) S 180 1,4 C 0,0 km/h (0 Bft)
20.10.2015 19:35 3,8 C 3,7 C 84 % 1020,6 hPa 0,0 mm 0,0 km/h (0 Bft) S 180 1,4 C 0,0 km/h (0 Bft)
20.10.2015 19:40 3,8 C 3,6 C 85 % 1020,6 hPa 0,0 mm 0,0 km/h (0 Bft) S 180 1,5 C 0,0 km/h (0 Bft)
20.10.2015 19:45 3,8 C 3,6 C 86 % 1020,6 hPa 0,0 mm 0,0 km/h (0 Bft) S 180 1,7 C 0,0 km/h (0 Bft)
20.10.2015 19:50 3,8 C 3,6 C 86 % 1020,7 hPa 0,0 mm 0,0 km/h (0 Bft) S-SO 157 1,7 C 0,0 km/h (0 Bft)
20.10.2015 19:55 3,7 C 3,6 C 84 % 1020,7 hPa 0,0 mm 0,0 km/h (0 Bft) S-SO 157 1,3 C 0,0 km/h (0 Bft)
20.10.2015 20:00 3,7 C 3,6 C 84 % 1020,7 hPa 0,0 mm 0,0 km/h (0 Bft) S-SO 157 1,3 C 0,0 km/h (0 Bft)
20.10.2015 20:05 3,7 C 3,5 C 86 % 1020,7 hPa 0,0 mm 0,0 km/h (0 Bft) S-SO 157 1,6 C 0,0 km/h (0 Bft)
20.10.2015 20:10 3,7 C 3,5 C 86 % 1020,9 hPa 0,0 mm 0,0 km/h (0 Bft) S-SO 157 1,6 C 0,0 km/h (0 Bft)
20.10.2015 20:15 3,6 C 3,5 C 84 % 1020,9 hPa 0,0 mm 0,0 km/h (0 Bft) S 180 1,2 C 0,0 km/h (0 Bft)
20.10.2015 20:20 3,6 C 3,4 C 86 % 1020,9 hPa 0,0 mm 0,0 km/h (0 Bft) S-SW 202 1,5 C 0,0 km/h (0 Bft)
20.10.2015 20:25 3,6 C 3,4 C 86 % 1020,9 hPa 0,0 mm 0,0 km/h (0 Bft) S 180 1,5 C 0,0 km/h (0 Bft)
20.10.2015 20:30 3,5 C 3,3 C 86 % 1020,8 hPa 0,0 mm 0,0 km/h (0 Bft) S 180 1,4 C 0,0 km/h (0 Bft)
20.10.2015 20:35 3,5 C 3,3 C 86 % 1020,8 hPa 0,0 mm 0,0 km/h (0 Bft) S 180 1,4 C 0,0 km/h (0 Bft)
20.10.2015 20:40 3,5 C 3,3 C 86 % 1020,8 hPa 0,0 mm 0,0 km/h (0 Bft) S 180 1,4 C 0,0 km/h (0 Bft)
20.10.2015 20:45 3,5 C 3,3 C 86 % 1020,8 hPa 0,0 mm 0,0 km/h (0 Bft) S 180 1,4 C 0,0 km/h (0 Bft)
20.10.2015 20:50 3,4 C 3,2 C 86 % 1020,6 hPa 0,0 mm 0,0 km/h (0 Bft) S 180 1,3 C 0,0 km/h (0 Bft)
20.10.2015 20:55 3,4 C 3,2 C 86 % 1020,6 hPa 0,0 mm 0,0 km/h (0 Bft) S 180 1,3 C 0,0 km/h (0 Bft)
20.10.2015 21:00 3,4 C 3,2 C 86 % 1020,6 hPa 0,0 mm 0,0 km/h (0 Bft) S 180 1,3 C 0,0 km/h (0 Bft)
20.10.2015 21:05 3,4 C 3,2 C 86 % 1020,6 hPa 0,0 mm 0,0 km/h (0 Bft) W-SW 247 1,3 C 0,0 km/h (0 Bft)
20.10.2015 21:10 3,4 C 3,2 C 86 % 1020,9 hPa 0,0 mm 0,0 km/h (0 Bft) SW 225 1,3 C 0,0 km/h (0 Bft)
20.10.2015 21:15 3,5 C 3,3 C 86 % 1020,9 hPa 0,0 mm 0,0 km/h (0 Bft) S 180 1,4 C 0,0 km/h (0 Bft)
20.10.2015 21:20 3,4 C 3,2 C 86 % 1020,9 hPa 0,0 mm 0,0 km/h (0 Bft) W-SW 247 1,3 C 0,0 km/h (0 Bft)
20.10.2015 21:25 3,5 C 3,3 C 86 % 1020,9 hPa 0,0 mm 0,0 km/h (0 Bft) S 180 1,4 C 0,0 km/h (0 Bft)
20.10.2015 21:30 3,5 C 3,3 C 86 % 1020,8 hPa 0,0 mm 0,0 km/h (0 Bft) S 180 1,4 C 0,0 km/h (0 Bft)
20.10.2015 21:35 3,5 C 3,3 C 86 % 1020,8 hPa 0,0 mm 0,0 km/h (0 Bft) S 180 1,4 C 0,0 km/h (0 Bft)
20.10.2015 21:40 3,4 C 3,2 C 86 % 1020,8 hPa 0,0 mm 0,0 km/h (0 Bft) W-SW 247 1,3 C 0,0 km/h (0 Bft)
20.10.2015 21:45 3,5 C 3,3 C 86 % 1020,8 hPa 0,0 mm 0,0 km/h (0 Bft) W-SW 247 1,4 C 0,0 km/h (0 Bft)
20.10.2015 21:50 3,4 C 3,2 C 87 % 1020,8 hPa 0,0 mm 0,0 km/h (0 Bft) S 180 1,4 C 0,0 km/h (0 Bft)
20.10.2015 21:55 3,5 C 3,3 C 87 % 1020,8 hPa 0,0 mm 0,0 km/h (0 Bft) S 180 1,5 C 0,0 km/h (0 Bft)
20.10.2015 22:00 3,4 C 3,2 C 87 % 1020,8 hPa 0,0 mm 0,0 km/h (0 Bft) W-SW 247 1,4 C 0,0 km/h (0 Bft)
20.10.2015 22:05 3,4 C 3,2 C 87 % 1020,8 hPa 0,0 mm 0,0 km/h (0 Bft) S 180 1,4 C 0,0 km/h (0 Bft)
20.10.2015 22:10 3,4 C 3,2 C 87 % 1020,7 hPa 0,0 mm 0,0 km/h (0 Bft) S 180 1,4 C 0,0 km/h (0 Bft)
20.10.2015 22:15 3,3 C 3,1 C 87 % 1020,7 hPa 0,0 mm 0,0 km/h (0 Bft) S-SO 157 1,3 C 0,0 km/h (0 Bft)
20.10.2015 22:20 3,3 C 3,1 C 87 % 1020,7 hPa 0,0 mm 0,0 km/h (0 Bft) S-SO 157 1,3 C 0,0 km/h (0 Bft)
20.10.2015 22:25 3,3 C 3,1 C 87 % 1020,7 hPa 0,0 mm 0,0 km/h (0 Bft) S-SO 157 1,3 C 0,0 km/h (0 Bft)
20.10.2015 22:30 3,3 C 3,1 C 87 % 1020,7 hPa 0,0 mm 0,0 km/h (0 Bft) S-SO 157 1,3 C 0,0 km/h (0 Bft)
20.10.2015 22:35 3,2 C 3,1 C 85 % 1020,7 hPa 0,0 mm 0,0 km/h (0 Bft) S-SO 157 0,9 C 0,0 km/h (0 Bft)
20.10.2015 22:40 3,2 C 3,1 C 85 % 1020,7 hPa 0,0 mm 0,0 km/h (0 Bft) S-SO 157 0,9 C 0,0 km/h (0 Bft)
20.10.2015 22:45 3,3 C 3,1 C 88 % 1020,7 hPa 0,0 mm 0,3 km/h (0 Bft) S 180 1,5 C 0,0 km/h (0 Bft)
20.10.2015 22:50 3,3 C 3,1 C 85 % 1020,8 hPa 0,0 mm 0,3 km/h (0 Bft) SO 135 1,0 C 0,0 km/h (0 Bft)
20.10.2015 22:55 3,3 C 3,1 C 88 % 1020,8 hPa 0,0 mm 0,3 km/h (0 Bft) S-SO 157 1,5 C 0,0 km/h (0 Bft)
20.10.2015 23:00 3,3 C 3,1 C 88 % 1020,8 hPa 0,0 mm 0,0 km/h (0 Bft) S 180 1,5 C 0,0 km/h (0 Bft)
20.10.2015 23:05 3,3 C 3,1 C 88 % 1020,8 hPa 0,0 mm 0,0 km/h (0 Bft) S 180 1,5 C 0,0 km/h (0 Bft)
20.10.2015 23:10 3,3 C 3,1 C 88 % 1020,8 hPa 0,0 mm 0,0 km/h (0 Bft) S 180 1,5 C 0,0 km/h (0 Bft)
20.10.2015 23:15 3,4 C 3,2 C 88 % 1020,8 hPa 0,0 mm 0,0 km/h (0 Bft) S 180 1,6 C 0,0 km/h (0 Bft)
20.10.2015 23:20 3,4 C 3,3 C 85 % 1020,8 hPa 0,0 mm 0,3 km/h (0 Bft) S-SW 202 1,1 C 3,1 km/h (1 Bft)
20.10.2015 23:25 3,4 C 3,3 C 88 % 1020,8 hPa 0,0 mm 0,0 km/h (0 Bft) S 180 1,6 C 0,0 km/h (0 Bft)
20.10.2015 23:30 3,4 C 3,3 C 88 % 1020,7 hPa 0,0 mm 0,0 km/h (0 Bft) S 180 1,6 C 0,0 km/h (0 Bft)
20.10.2015 23:35 3,4 C 3,2 C 88 % 1020,7 hPa 0,0 mm 0,0 km/h (0 Bft) SO 135 1,6 C 0,0 km/h (0 Bft)
20.10.2015 23:40 3,4 C 3,2 C 88 % 1020,7 hPa 0,0 mm 0,0 km/h (0 Bft) SO 135 1,6 C 0,0 km/h (0 Bft)
20.10.2015 23:45 3,3 C 3,1 C 88 % 1020,7 hPa 0,0 mm 0,0 km/h (0 Bft) O-NO 67 1,5 C 0,0 km/h (0 Bft)
20.10.2015 23:50 3,3 C 3,1 C 88 % 1020,8 hPa 0,0 mm 0,0 km/h (0 Bft) O-SO 112 1,5 C 0,0 km/h (0 Bft)
20.10.2015 23:55 3,3 C 3,1 C 88 % 1020,8 hPa 0,0 mm 0,0 km/h (0 Bft) S-SO 157 1,5 C 0,0 km/h (0 Bft)
_ Min-Zeit 07:55 07:55 14:50 05:45 - 23:55 - - 07:55 23:55
Minimum _ -2,9 C -3,3 C 66 % 1017,9 hPa - 0,0 km/h (0 Bft) - - -4,0 C 0,0 km/h (0 Bft)
_ Max-Zeit 14:35 14:35 11:30 15:05 16:25 12:45 - - 12:30 13:20
Maximum _ 9,8 C 18,2 C 95 % 1021,4 hPa 0,7 mm 6,2 km/h
N-NO (2 Bft)
- - 5,7 C 15,0 km/h
N-NW (3 Bft)
Durchschnitt _ 2,1 C 3,0 C 86 % 1019,5 hPa #0,7 mm 0,7 km/h (0 Bft) NW - -0,1 C 1,0 km/h (0 Bft)